Regional Weather Roundup
Issued by NWS

Home | Current Version | Previous Version | Text Only | Print | Product List | Glossary On
Versions: 1 2 3 4 5 6 7 8 9 10 11 12 13 14 15 16 17 18 19 20 21 22 23 24 25 26 27
000
ASUS45 KBOU 302210
RWRCO

WEATHER ROUNDUP FOR COLORADO
NATIONAL WEATHER SERVICE DENVER/BOULDER CO
400 PM MDT FRI SEP 30 2016

NOTE: "FAIR" INDICATES FEW OR NO CLOUDS BELOW 12000 FEET WITH NO
SIGNIFICANT WEATHER AND/OR OBSTRUCTIONS TO VISIBILITY.

COZ001>005-013-030-031-302300-
...NORTHWEST COLORADO...

CITY           SKY/WX    TMP DP  RH WIND       PRES   REMARKS
CRAIG          FAIR      73  39  29 W5        30.23F
HAYDEN         FAIR      66  43  42 S8        30.26F
MEEKER         FAIR      65  44  46 SW12      30.26F
MOUNT WERNER   NOT AVBL
STEAMBOAT SPGS FAIR      63  44  50 CALM      30.28S
WALDEN           N/A     63  34  34 SW9       30.34F
$$

COZ006>008-011-302300-
...WEST CENTRAL VALLEYS...

CITY           SKY/WX    TMP DP  RH WIND       PRES   REMARKS
GRAND JUNCTION FAIR      72  50  45 CALM      30.20F
MONTROSE       PTSUNNY   68  48  48 W10       30.27S
EAGLE          PTSUNNY   64  45  48 CALM      30.28F
RIFLE          FAIR      71  45  39 W5        30.22F
DELTA          FAIR      76  44  31 SW13G18   30.22F
NUCLA          FAIR      68  48  49 NW9       30.29F
$$

COZ017>023-064>068-302300-
...SOUTHWEST COLORADO...

CITY           SKY/WX    TMP DP  RH WIND       PRES   REMARKS
DURANGO        FAIR      70  46  42 W12       30.26F
CORTEZ         FAIR      71  47  42 W13       30.24F
PAGOSA SPRINGS FAIR      69  37  30 SW9       30.30F
TELLURIDE      FAIR      58  41  52 W6        30.43F
WOLF CREEK PAS PTSUNNY   46  32  57 SW13G23   30.58S THUNDER
$$

COZ009-010-012-014-032>034-037-058>063-302300-
...CENTRAL COLORADO...

CITY           SKY/WX    TMP DP  RH WIND       PRES   REMARKS
ASPEN          CLOUDY    64  41  42 VRB6      30.32F
BUENA VISTA    FAIR      67  34  30 NW14G25   30.30S
COPPER MTN     CLOUDY    46  34  61 NW7       30.57S
BERTHOUD PASS  HAZE      34  23  64 N16       30.58S VSB<1/4 WCI  23
COTTONWOOD PAS PTSUNNY   59  32  36 SW10G16   30.43R
GUNNISON       FAIR      62  41  46 W7        30.31F
KREMMLING      RAIN      54  46  76 S7        30.35S
LEADVILLE      CLOUDY    56  31  38 VRB6      30.42F
MONARCH PASS   FAIR      50  34  53 W17G24    30.65F
SALIDA         CLOUDY    69  38  31 N12G17    30.32F
SUNLIGHT       PTSUNNY   52  43  71 W5        30.53F
WILKERSON PASS CLOUDY    46  36  66 NE10      30.54S
$$

COZ069>075-302300-
...SAN LUIS VALLEY/SANGRE DE CRISTO MOUNTAINS...

CITY           SKY/WX    TMP DP  RH WIND       PRES   REMARKS
ALAMOSA        CLOUDY    69  36  29 CALM      30.26F
LA VETA PASS   FAIR      63  32  31 MISG      30.44F
SAGUACHE       PTSUNNY   68  36  30 W12       30.30F
$$

COZ035-036-038>040-302300-
...NORTHERN COLORADO FRONT RANGE...

CITY           SKY/WX    TMP DP  RH WIND       PRES   REMARKS
DENVER INTL AP PTSUNNY   72  44  36 N14       30.18F
DMNS CITY PARK   N/A     73  42  32 N3        30.18S
AURORA         PTSUNNY   72  43  35 N10       30.20F
FRONT RANGE AP PTSUNNY   73  45  35 E15G21    30.20F
ERIE MUNI ARPT FAIR      75  39  27 E5        30.17S
BOULDER MUN AP PTSUNNY   70  43  37 CALM      30.18S
CENTENNIAL     PTSUNNY   72  43  35 VRB6      30.20F
BROOMFIELD     PTSUNNY   72  41  33 NE5       30.21S
FORT COLLINS   FAIR      75  46  35 E3        30.14F
LONGMONT       PTSUNNY   73  44  35 CALM      30.19S
$$

COZ041-046-047-076>085-087-088-302300-
...PIKES PEAK/PALMER DIVIDE AND SOUTHERN FOOTHILLS...

CITY           SKY/WX    TMP DP  RH WIND       PRES   REMARKS
COLO. SPRINGS  PTSUNNY   74  40  29 NE12G22   30.21F
A. F. ACADEMY  FAIR      67  41  37 N14       30.22F
SCHRIEVER AFB  NOT AVBL
ELLICOTT       NOT AVBL
FALCON         FAIR      70  39  31 N10G20    30.26S
FORT CARSON    NOT AVBL
LIMON          FAIR      73  41  31 N12       30.17S
MONUMENT HILL  FAIR      64  41  42 NE13      30.29S
TRINIDAD       PTSUNNY   79  37  22 N8        30.13F
$$

COZ042>045-048>051-090-091-302300-
...NORTHEAST COLORADO...

CITY           SKY/WX    TMP DP  RH WIND       PRES   REMARKS
GREELEY ARPT   FAIR      73  50  43 E6        30.15F
AKRON          FAIR      72  43  35 E12       30.15F
BURLINGTON     FAIR      73  44  35 SE15G24   30.13F
WRAY           FAIR      73  43  33 S14       30.14S
STERLING       FAIR      77  45  31 E9        30.11S
HOLYOKE        FAIR      73  45  35 SE10      30.14S
FORT MORGAN    FAIR      75  41  29 E6        30.14F
$$

COZ086-089-092>099-302300-
...SOUTHEAST COLORADO...

CITY           SKY/WX    TMP DP  RH WIND       PRES   REMARKS
PUEBLO         FAIR      84  42  22 SE10G21   30.07F
LA JUNTA       FAIR      79  43  27 E6        30.07F
LAMAR          FAIR      86  41  20 CALM      30.02F
SPRINGFIELD      N/A     75  48  38 S13       30.09F
$$




USA.gov is the U.S. government's official web portal to all federal, state and local government web resources and services.